Погода в Тунгокочене

Погода в Тунгокочене : погода сейчас, прогноз погоды и архив. Всё, что Вы хотите узнать о погоде в Тунгокочене!

Хотите узнать прогноз погоды в Тунгокочене? Тогда Вам сюда: Погода в Тунгокочене

Поиск расширенной информации на нашем сайте:

Другие новости

Новости СМИ2

Главная страница сайта

Новости сайта

03.07.2017

Напоминаем, что на нашем специализированном сайте Метеоцентр.Азия вы можете получить высокодетализированные автоматические прогнозы погоды по пунктам России, СНГ и мира в авиационном формате (включающие направление и скорость ветра, видимость, явления погоды, количество и форму облачности, нижнюю и верхнюю границу облачности).

Рекомендуем: Как выбрать полотенцесушитель.

Погода в Тунгокочене - сегодня

Время (UTC), дата Ветер
(°,м/с) 
Видим.   Явления Облачность Т
(°С)
Тd
(°С)
f(%) Тe
(°С)
Pmin
(гПа)
dP
(гПа)
Po
(мм)
O2
(г/м3)
Тmin Tmax R s Состояние
почвы
12 18.01.18 тихо ()   н/о    10/0 средняя, верхняя 
[Ac lent|Ci fib]
-33.3 -37.3 67 -33  1018.2  681  314    -24.9       
15 18.01.18 тихо ()   н/о  слаб. снег  10/0 средняя 
[As op]
-29 -32.7 70 -29  1014.7  -1.3  680  308           
18 18.01.18 260 (З) 5{12}  н/о  снег  10/0 средняя 
[As op]
-20.5 -26.1 61 -27  1011.9  0.9  681  298           
21 18.01.18 260 (З) 5{11}  н/о  позёмок{снег}  10/0 средняя, верхняя 
[Ac lent|Ci fib]
-23.7 -30.9 51 -31  1014.7  1.2  682  303           
00 19.01.18 240 (ЮЗ) н/о  гроза, пыльная буря  10/0 средняя 
[As trans]
-25.2 -30.6 61 -31  1016.7  1.2  683  305  -33.4    0.9  20  равномерный
сухой снег
100% 
03 19.01.18 240 (ЮЗ) 10 км  слаб. снег  10/0 средняя 
[As trans]
-23.9 -29.1 62 -27  1017.3  1.1  684  304           
06 19.01.18 340 (С) 10 км  слаб. снег{дождь}  10/0 средняя 
[As trans]
-23 -28.1 63 -29  1019  1.9  685  303           
09 19.01.18 020 (С) 10 км  слаб. снег  10/0 средняя 
[As op]
-23.2 -27.9 65 -26  1022.5  687  304           
12 19.01.18 340 (С) н/о  {снег}  8/0 верхняя 
[Ci fib]
-23.6 -29.5 58 -30  1025.3  2.4  689  306    -22.7  0.3     
15 19.01.18 010 (С) н/о  {снег}  6/0 верхняя 
[Ci fib]
-26.7 -32.7 57 -30  1029.2  2.2  691  310           
00 20.01.18 тихо ()   н/о  дымка  ясно 
-45.2 -50.6 54 -45  1042.6  1.5  693  337  -45.4    0.0  20  равномерный
сухой снег
100% 
03 20.01.18 тихо ()   4000 м  дымка{туман}  ясно 
-38.9 -43.7 60 -39  1040.3  0.9  694  328           
06 20.01.18 тихо ()   20000 м  {туман}  4/0 верхняя 
[Ci fib]
-23.7 -35.9 32 -24  1032.7  -0.3  694  308           
09 20.01.18 340 (С) н/о    6/0 верхняя 
[Ci fib]
-30 -37.5 48 -31  1037  1.2  695  316           
12 20.01.18 220 (ЮЗ) н/о    ясно 
-41.6 -46.7 58 -43  1044.4  1.4  696  333  -23.1         
15 20.01.18 230 (ЮЗ) н/о  дымка  ясно 
-44.4 -49.7 55 -46  1046.3  0.4  696  337           
18 20.01.18 тихо ()   н/о  дымка  ясно 
-46.9 -52.6 52 -47  1047.9  0.2  696  341           
21 20.01.18 тихо ()   н/о  дымка  ясно 
-48.3 -54.1 51 -48  1048.5  -0.2  696  343           
00 21.01.18 тихо ()   н/о  дымка  3/0 средняя 
[Ac lent]
-49.6 -55.5 49 -50  1049.6  0.4  697  345  -49.7      20  равномерный
сухой снег
100% 
03 21.01.18 тихо ()   2000 м  дымка{туман}  ясно 
-41.4 -46.6 57 -41  1044.8  -0.3  696  333           
06 21.01.18 тихо ()   20000 м  {туман}  10/0 средняя, верхняя 
[Ac lent|Ci fib]
-28.5 -37.1 43 -29  1036.5  -1.7  695  314           
09 21.01.18 330 (СЗ) н/о    6/0 верхняя 
[Ci fib]
-28.2 -37.2 42 -32  1035.3  -0.9  694  314           
12 21.01.18 240 (ЮЗ) н/о    ясно 
-37.3 -41.8 63 -42  1038.5  -1.1  694  326    -26.3       
15 21.01.18 тихо ()   н/о    ясно 
-41.7 -46.8 58 -42  1039.3  -1.3  692  331           
18 21.01.18 тихо ()   н/о    ясно 
-42.4 -47.6 56 -42  1038.1  -1.3  692  332           
Время (UTC), дата Ветер
(°,м/с) 
Видим.   Явления Облачность Т
(°С)
Тd
(°С)
f(%) Тe
(°С)
Pmin
(гПа)
dP
(гПа)
Po
(мм)
O2
(г/м3)
Тmin Tmax R s Состояние
почвы

Для получения пояснительной информации подведите курсор к названию столбца.

ПОГОДА в Тунгокочене - архив

Всё, что Вы хотите узнать о погоде в Тунгокочене - удобно и подробно!

Выберите нужную дату (начиная с 1 января 2015* года) и нажмите кнопку "Найти".
Будут отображены архивные сводки погоды по пункту Тунгокочен, начиная с указанной даты.


Отображать данные в формате CSV (для использования в таблицах Excel)


Внимание! Наш архив погоды предназначен исключительно для личного некоммерческого использования в познавательных целях. Если Вам необходимы официальные справки о состоянии погоды (для производственных, юридических, коммерческих и т.п. целей), обращайтесь в органы Росгидромета.

*Примечание: данная дата относится к архиву по метеостанциям СССР (Россия, СНГ, Балтия).
Архив по метеостанциям Зарубежной Европы и Азии (кроме Китая) хранится 10 дней, по другим регионам земного шара (Китай, Африка, Америка, Австралия, Океания) - 1 день.

Тунгокочен - район местоположения метеостанции


Название, широта, долгота, высота метеостанции:
Тунгокочен 53.5°ш. 115.6°д. 811 м над ур. моря [Российская Федерация]

Дополнительная информация

В oтличие oт бoльшинства пoгoдных сайтoв мы публикуем пoдрoбную метеoинфoрмацию в детальнoм прoфессиoнальнoм фoрмате.

Характеристики температуры и влажнoсти вoздуха измеряются на высoте 2 м в тени вдали oт зданий и деревьев.
Скoрoсть ветра измеряется на высoте 10 м (на урoвне рoста челoвека скoрoсть ветра ниже в 1.5-2 раза). Если метеoстанция нахoдится в гoрoде или в лесу, тo скoрoсть ветра занижена на 2-4 м/с пo сравнению с oткрытым местoм. Скoрoсть ветра над акватoриями крупных рек и oзёр, а также на вершинах хoлмoв на 2-5 м/с выше, чем в oбычных услoвиях.
Атмoсфернoе давление в разных тoчках местнoсти мoжет значительнo oтличаться oт давления на метеoстанции, в зависимoсти oт услoвий рельефа (при пoдъёме на 10 м давление пoнижается примернo на 1 мм рт.ст.).